Weather History for Farmington, NM

Change the Weather History Date:

Sunday, September 22, 2013

  Actual Average Record
Temperature  
Mean Temperature 64 °F -  
Max Temperature 77 °F 77 °F 87 °F (2012)
Min Temperature 50 °F 46 °F 35 °F (2004)
Degree Days  
Heating Degree Days 2    
Growing Degree Days 14 (Base 50)    
Moisture  
Dew Point 50 °F    
Average Humidity 66    
Maximum Humidity 88    
Minimum Humidity 35    
Precipitation  
Precipitation 0.39 in - - ()
Sea Level Pressure  
Sea Level Pressure 29.72 in    
Wind  
Wind Speed 9 mph (East)    
Max Wind Speed 38 mph    
Max Gust Speed 51 mph    
Visibility 9 miles    
Events Rain , Thunderstorm    
Averages and records for this station are not official NWS values.
T = Trace of Precipitation, MM = Missing Value Source: NWS Daily Summary

Daily Weather History Graph

Daily Weather History Graph

Search for Another Location

Airport:

Trip Planner

Search our weather history database for the weather conditions in past years. The results will help you decide how hot, cold, wet, or windy it might be!

Date:

Astronomy

Sep. 22, 2013 Rise Set
Actual Time 7:01 AM MDT 7:09 PM MDT
Civil Twilight 6:35 AM MDT 7:35 PM MDT
Nautical Twilight 6:05 AM MDT 8:05 PM MDT
Astronomical Twilight 5:34 AM MDT 8:35 PM MDT
Moon 9:07 PM MDT (9/22) 10:18 AM MDT (9/22)
Length of Visible Light 12h 59m
Length of Day
12h 08m
Waning Gibbous, 88% of the Moon is Illuminated
Sep 22
Waning Gibbous
Sep 26
Last Quarter
Oct 4
New
Oct 11
First Quarter
Oct 18
Full

Hourly Weather History & Observations

Time (MDT) Temp. Dew Point Humidity Pressure Visibility Wind Dir Wind Speed Gust Speed Precip Events Conditions
12:53 AM 62.1 °F 50.0 °F 65% 29.79 in 10.0 mi East 3.5 mph - N/A   Mostly Cloudy
1:53 AM 61.0 °F 50.0 °F 67% 29.78 in 10.0 mi ENE 8.1 mph - N/A   Clear
2:53 AM 62.1 °F 51.1 °F 67% 29.76 in 10.0 mi East 9.2 mph - N/A   Partly Cloudy
3:53 AM 61.0 °F 51.1 °F 70% 29.76 in 10.0 mi East 6.9 mph - N/A   Mostly Cloudy
4:53 AM 60.1 °F 51.1 °F 72% 29.75 in 10.0 mi East 9.2 mph - N/A   Scattered Clouds
5:37 AM 60.8 °F 51.8 °F 72% 29.91 in 10.0 mi East 9.2 mph - N/A Thunderstorm Mostly Cloudy
5:53 AM 60.1 °F 51.1 °F 72% 29.74 in 10.0 mi East 4.6 mph - N/A Thunderstorm Overcast
6:09 AM 59.0 °F 51.8 °F 77% 29.91 in 10.0 mi ENE 5.8 mph - N/A   Mostly Cloudy
6:20 AM 57.2 °F 51.8 °F 82% 29.91 in 10.0 mi NE 9.2 mph - N/A Thunderstorm Partly Cloudy
6:35 AM 59.0 °F 51.8 °F 77% 29.91 in 10.0 mi ENE 8.1 mph - N/A   Partly Cloudy
6:53 AM 59.0 °F 51.1 °F 75% 29.76 in 10.0 mi East 5.8 mph - N/A   Mostly Cloudy
7:53 AM 61.0 °F 51.1 °F 70% 29.76 in 10.0 mi East 8.1 mph - N/A   Scattered Clouds
8:53 AM 64.0 °F 53.1 °F 67% 29.75 in 10.0 mi East 9.2 mph - N/A   Clear
9:53 AM 66.9 °F 53.1 °F 61% 29.74 in 10.0 mi East 8.1 mph - N/A   Clear
10:53 AM 66.9 °F 52.0 °F 59% 29.72 in 10.0 mi SE 12.7 mph - 0.00 in Rain , Thunderstorm Light Rain
11:48 AM 62.6 °F 55.4 °F 77% 29.84 in 10.0 mi SSE 5.8 mph - 0.04 in Rain Light Rain
11:53 AM 64.0 °F 55.9 °F 75% 29.70 in 10.0 mi ENE 3.5 mph - 0.04 in   Mostly Cloudy
12:53 PM 73.9 °F 52.0 °F 46% 29.61 in 10.0 mi South 15.0 mph 21.9 mph N/A   Clear
1:53 PM 75.0 °F 46.9 °F 37% 29.56 in 10.0 mi SSW 13.8 mph 25.3 mph N/A   Mostly Cloudy
2:53 PM 72.0 °F 50.0 °F 46% 29.53 in 10.0 mi South 19.6 mph 26.5 mph 0.00 in   Partly Cloudy
3:53 PM 75.9 °F 46.9 °F 36% 29.48 in 10.0 mi South 25.3 mph 35.7 mph N/A   Partly Cloudy
4:16 PM 64.4 °F 46.4 °F 52% 29.67 in 5.0 mi WNW 38.0 mph 50.6 mph N/A Thunderstorm Haze
4:26 PM 60.8 °F 48.2 °F 63% 29.69 in 8.0 mi NW 27.6 mph 42.6 mph 0.00 in Rain , Thunderstorm Light Rain
4:48 PM 57.2 °F 50.0 °F 77% 29.78 in 1.8 mi West 21.9 mph 31.1 mph 0.03 in Rain , Thunderstorm Heavy Thunderstorms and Rain
4:53 PM 55.0 °F 51.1 °F 86% 29.67 in 1.2 mi West 18.4 mph 31.1 mph 0.17 in Rain , Thunderstorm Heavy Thunderstorms and Rain
5:03 PM 55.4 °F 51.8 °F 88% 29.77 in 3.0 mi WNW 12.7 mph 26.5 mph 0.12 in Rain , Thunderstorm Thunderstorms and Rain
5:42 PM 55.4 °F 48.2 °F 77% 29.75 in 10.0 mi West 8.1 mph 19.6 mph 0.21 in Rain Light Rain
5:53 PM 55.9 °F 50.0 °F 80% 29.57 in 10.0 mi NW 6.9 mph - 0.21 in   Overcast
6:53 PM 59.0 °F 51.1 °F 75% 29.62 in 10.0 mi Calm Calm - N/A   Partly Cloudy
7:53 PM 57.9 °F 46.9 °F 67% 29.65 in 10.0 mi Calm Calm - N/A   Clear
8:53 PM 53.1 °F 46.9 °F 80% 29.69 in 10.0 mi NW 4.6 mph - N/A   Clear
9:53 PM 53.1 °F 39.9 °F 61% 29.72 in 10.0 mi West 9.2 mph - N/A   Clear
10:53 PM 50.0 °F 39.0 °F 66% 29.76 in 10.0 mi WSW 8.1 mph - N/A   Clear
11:53 PM 50.0 °F 37.0 °F 61% 29.79 in 10.0 mi West 6.9 mph - N/A   Clear